User: anonymous   Login
Location: Saratov
(51.5670°N, 46.0330°E)
Time: 19:32:24
(UTC+03:00)
Language:

LightSail 2 - Orbit

View from above orbital plane
View from above orbital plane
View from above satellite
View from above satellite

Ground track
Ground track

The orbit data is extracted from the following two-line orbital elements,

1 44420U 19036AC  19295.08773770  .00005165  00000-0  11688-2 0  9991
2 44420  24.0058 177.5209 0010194  38.2684 321.8630 14.53373335 15424
Epoch (UTC): 22 October 2019 02:06:20
Eccentricity: 0.0010194
inclination: 24.0058°
perigee height: 707 km
apogee height: 722 km
right ascension of ascending node: 177.5209°
argument of perigee: 38.2684°
revolutions per day: 14.53373335
mean anomaly at epoch: 321.8630°
orbit number at epoch: 1542

The dashed part of the orbit path shows where the satellite is in the earth's shadow,  

DLR